www.pogodaiklimat.ru

Погода и климат >> Архив погоды >> Маврикий >> Saint Brandon Saint Raphael


ПОГОДА в Saint Brandon Saint Raphael

  • Прогноз погоды в Saint Brandon Saint Raphael
  • Монитор погоды в Saint Brandon Saint Raphael
  • Климат города

АРХИВ ПОГОДЫ в Saint Brandon Saint Raphael

Время (UTC), дата Ветер
(напр.,м/с)
 
Видим.   Явления Облачность Т
(С)
Тd
(С)
f
(%)
Тe
(С)
Тes
(С)
Комфортность P
(гПа)
Po
(гПа)
Тmin
(С)
Tmax
(С)
R
(мм)
R24
(мм)
S
(см)
12 11.12 ЮВ 3 15 км осадки на расстоянии 9 баллов +28.9 +25.8 83
15 11.12 ЮВ 5 15 км осадки на расстоянии {ливн. осадки} 9/9 450 м
[Cu Sc Ci sp]
+27.6 +22.5 74 +36 +36 очень
душно
1013.7 1014.0 2
18 11.12 ЮВ 3 12 км в посл. час ливневой дождь 9 баллов +27.8 +26.1 90
00 12.12 В 3 18 км осадки на расстоянии 6 баллов +27.4 +25.4 89
03 12.12 В 7 18 км осадки на расстоянии 9/4 500 м
[Cu Sc Ci sp]
+27.6 +25.4 88 +40 +41 очень
душно
1013.8 1014.0
06 12.12 В 4 20 км осадки на расстоянии {ливн. осадки} 9 баллов +30.4 +26.2 78 4
09 12.12 25 км н/о +30.5 +25.9 76 +45 +48 опасность
перегрева
1013.1 1013.0
12 12.12 В 7 25 км 6/4 540 м
[Cu Sc Ci sp]
+30.4 +26.1 78 +46 +47 опасность
перегрева
1012.5 1013.0
15 12.12 В 8 15 км осадки на расстоянии 9/9 480 м
[Cu Sc Ci sp]
+28.2 +25.8 87 +42 +42 опасность
перегрева
1014.1 1014.0
18 12.12 ЮВ 8 18 км осадки на расстоянии 9/9 480 м
[Cu Sc Ci sp]
+27.8 +25.3 86 +40 +40 очень
душно
1015.4 1015.0 +31.2
00 13.12 В 8 20 км 8/6 540 м
[Cu Sc Ci sp]
+27.1 +23.7 82 +37 +37 очень
душно
1013.8 1014.0
03 13.12 В 7 25 км 6/4 540 м
[Cu Sc Ci sp]
+27.5 +23.9 81 +38 +38 очень
душно
1014.5 1015.0
06 13.12 В 7 30 км 5/1 600 м
[Cu Sc Ci sp]
+31.0 +25.0 70 +44 +49 опасность
перегрева
1014.8 1015.0 +26.9
09 13.12 В 8 30 км 4/4 600 м
[Cu med, cong Ci sp]
+30.5 +24.4 70 +43 +45 опасность
перегрева
1013.5 1014.0
12 13.12 В 5 30 км 4/4 600 м
[Cu med, cong Ci sp]
+30.4 +25.1 73 +44 +46 опасность
перегрева
1012.7 1013.0
15 13.12 В 7 18 км осадки на расстоянии 8/8 500 м
[Cu Sc]
+27.9 +24.9 84 +40 +40 очень
душно
1014.4 1014.0
18 13.12 В 7 20 км 6/6 540 м
[Cu Sc]
+27.7 +24.4 82 +39 +39 очень
душно
1015.4 1015.0 +31.2
00 14.12 В 8 18 км осадки на расстоянии 5/5 500 м
[Cu Sc]
+26.8 +23.2 81 +36 +36 очень
душно
1014.4 1014.0
03 14.12 В 7 25 км 5/5 540 м
[Cu Sc]
+27.4 +23.4 79 +37 +38 очень
душно
1015.0 1015.0
06 14.12 В 6 30 км 4/4 600 м
[Cu med, cong]
+21.5 +23.6 100 +28 +31 очень
душно
1015.1 1015.0 +26.6
09 14.12 В 7 30 км 3/3 660 м
[Cu hum]
+30.0 +23.4 68 +41 +44 опасность
перегрева
1013.6 1014.0
12 14.12 В 7 30 км 4/3 600 м
[Cu med, cong]
+30.1 +23.7 69 +41 +43 опасность
перегрева
1012.5 1013.0
15 14.12 В 6 20 км 3/3 540 м
[Cu Sc Ci sp]
+27.4 +22.7 76 +36 +36 очень
душно
1013.8 1014.0
18 14.12 В 7 20 км 1/1 540 м
[Cu Sc]
+27.2 +22.5 76 +36 +36 очень
душно
1015.0 1015.0 +30.3
00 15.12 В 8 20 км 6/6 540 м
[Cu Sc]
+26.6 +22.8 80 +35 +35 очень
душно
1013.4 1013.0
03 15.12 В 7 25 км 5/5 540 м
[Cu Sc]
+27.2 +22.2 74 +35 +36 очень
душно
1013.3 1013.0
06 15.12 В 7 30 км 4/3 600 м
[Cu med, cong Ci fib]
+29.2 +22.9 69 +39 +42 очень
душно
1013.9 1014.0 +26.3
09 15.12 В 6 20 км 4/3 540 м
[Cu med, cong Ci fib]
+30.8 +22.4 61 +40 +46 очень
душно
1013.2 1013.0
12 15.12 В 5 30 км 3/3 570 м
[Cu Sc Ci sp]
+30.6 +23.5 66 +41 +44 опасность
перегрева
1012.5 1013.0
15 15.12 В 4 20 км 6/6 540 м
[Cu Sc]
+27.2 +23.1 78 +36 +36 очень
душно
1014.0 1014.0
18 15.12 В 5 25 км 3/3 540 м
[Cu Sc]
+27.3 +23.1 78 +37 +37 очень
душно
1015.3 1015.0 +31.2
00 16.12 В 5 20 км 3/3 540 м
[Cu Sc]
+26.2 +22.6 81 +35 +35 очень
душно
1013.5 1014.0
03 16.12 В 5 25 км 3/3 600 м
[Cu med, cong]
+27.2 +23.0 78 +36 +37 очень
душно
1014.1 1014.0
06 16.12 В 4 30 км 3/3 600 м
[Cu med, cong Ci fib]
+30.3 +23.5 67 +41 +49 опасность
перегрева
1014.6 1015.0
09 16.12 В 5 30 км 4/4 600 м
[Cu Sc Ci fib]
+32.2 +22.2 56 +41 +48 опасность
перегрева
1013.5 1014.0
12 16.12 ЮВ 3 30 км 5/4 570 м
[Cu med, cong Ci fib]
+31.6 +23.3 61 +42 +45 опасность
перегрева
1012.6 1013.0
15 16.12 ЮВ 4 20 км 6/4 540 м
[Cu Sc Ci sp]
+27.7 +23.8 79 +38 +38 очень
душно
1014.6 1015.0
18 16.12 ЮВ 6 20 км 4/4 540 м
[Cu med, cong Ci sp]
+27.2 +23.3 79 +37 +37 очень
душно
1015.6 1016.0 +32.9
00 17.12 В 9 20 км {ливн. осадки} 8/8 540 м
[Cu Sc Ci sp]
+25.5 +23.2 87 +34 +34 очень
душно
1013.3 1013.0 0.2
03 17.12 В 10 25 км 9/8 540 м
[Cu Sc Ac lent Ci sp]
+27.3 +23.9 82 +38 +38 очень
душно
1014.0 1014.0
06 17.12 В 7 15 км осадки на расстоянии 9/9 480 м
[Cu Sc]
+29.2 +24.3 75 +41 +41 опасность
перегрева
1014.7 1015.0 +25.0 0.2
09 17.12 ЮВ 6 12 км в посл. час ливневой дождь 9/9 450 м
[Cu Sc]
+28.0 +25.9 88 +42 +43 опасность
перегрева
1013.4 1013.0 3
12 17.12 В 8 15 км осадки на расстоянии {ливн. осадки} 8/4 480 м
[Cu Sc Ac lent Ci sp]
+29.2 +24.1 74 +41 +41 опасность
перегрева
1012.0 1012.0 4
15 17.12 В 8 15 км осадки на расстоянии 8/8 450 м
[Cu Sc]
+27.5 +24.1 82 +38 +38 очень
душно
1013.3 1013.0
18 17.12 В 9 20 км 8/8 540 м
[Cu Sc]
+27.3 +23.9 82 +38 +38 очень
душно
1014.5 1015.0 +31.0 4
00 18.12 В 8 20 км 8/8 540 м
[Cu Sc]
+26.4 +22.3 78 +34 +34 очень
душно
1013.2 1013.0
03 18.12 В 8 25 км 9/6 540 м
[Cu Sc Ac lent Ci sp]
+27.6 +23.1 77 +37 +37 очень
душно
1014.5 1015.0
06 18.12 В 8 20 км осадки на расстоянии 9/5 500 м
[Cu Sc Ac lent Ci sp]
+29.1 +23.6 72 +40 +41 очень
душно
1015.8 1016.0 +26.1 4
09 18.12 В 6 20 км осадки на расстоянии 9/3 500 м
[Cu Sc Cs]
+29.1 +23.2 71 +39 +44 очень
душно
1014.5 1015.0

 

Местоположение метеостанции Saint Brandon Saint Raphael (Маврикий): широта -16.45 долгота 59.62 высота над уровнем моря 4 м.

В архиве по умолчанию представлена погода в Saint Brandon Saint Raphael за последнюю неделю. Архивные данные за месяц целиком и за предыдущие месяцы, начиная с января 2011 года, Вы можете получить, выбрав интересующий диапазон дат из раскрывающегося списка и нажав кнопку "Ввод!".

Внимание! Время в таблицах - всемирное. Для получения местного времени необходимо прибавить поправку, которая в Saint Brandon Saint Raphael равна 4 ч.

Смотрите также архив погоды в соседних городах и на ближайших метеорологических станциях:

Погода в Vacoas Mauritius (Маврикий) (483 км)
Погода в Sir Seewoosagur Ramgoolam Airport (Маврикий) (488 км)
Погода в Rodrigues (Маврикий) (539 км)
Погода в Sir Gaetan Duval Airport (Маврикий) (540 км)
Погода в Serge-Frolow (Реюньон) (552 км)
Погода в Saint-Denis (Реюньон) (655 км)
Погода в Agalega (Маврикий) (738 км)
Погода в Antalaha (Мадагаскар) (1018 км)
Погода в Sambava (Мадагаскар) (1042 км)
Погода в Nosy Boraha (Мадагаскар) (1046 км)

Пояснения к столбцам:

Ветер - указаны скорость ветра в м/с - средняя за 10 мин, порывы в срок и между сроками (в фигурных скобках) и направление, откуда дует ветер: С - северный, СВ - северо-восточный, В - восточный, ЮВ - юго-восточный, Ю - южный, ЮЗ - юго-западный, З - западный, СЗ - северо-западный.
Видимость - горизонтальная дальность видимости в метрах или километрах. При видимости от 1 до 10 км при отсутствии осадков обычно наблюдается дымка, при ухудшении видимости до 1 км и менее - туман. В сухую погоду видимость может ухудшаться дымом, пылью или мглою.
Явления - указаны атмосферные явления, наблюдавшиеся в срок или в последний час перед сроком; фигурными скобками обозначены явления, наблюдавшиеся между сроками (за 1-3 часа до срока); квадратными скобками обозначены град или гололедные отложения с указанием их диаметра в мм.
Облачность - указаны через наклонную черту общая и нижняя облачность в баллах и высота нижней границы облаков в метрах; квадратными скобками обозначены формы облаков: Ci - перистые, Cs - перисто-слоистые, Cc - перисто-кучевые, Ac - высококучевые, As - высокослоистые, Sc - слоисто-кучевые, Ns - слоисто-дождевые, Cu - кучевые, Cb - кучево-дождевые. Подробнее классификацию облаков см. в Атласе облаков (PDF).
T - Температура воздуха - температура, измеренная на высоте 2 м над землей.
Td - Температура точки росы - температура, при понижении до которой содержащийся в воздухе водяной пар достигнет насыщения.
f - Относительная влажность воздуха - влажноcть воздуха, измеренная на высоте 2 м над землей.
Te - Эффективная температура - температура, которую ощущает одетый по сезону человек в тени. Характеристика душности погоды. При расчете учитывается влияние влажности воздуха и скорости ветра на теплоощущения человека.
Tes - Эффективная температура на солнце - температура, которую ощущает человек, с поправкой на солнечный нагрев. Характеристика знойности погоды. Зависит от высоты солнца над горизонтом, облачности и скорости ветра. Ночью, в пасмурную погоду, а также при ветре 12 м/с и более поправка равна нулю.
P - Атмосферное давление - приведенное к уровню моря атмосферное давление.
Po - Атмосферное давление - измеренное на уровне метеостанции атмосферное давление.
Tmin - Минимальная температура - минимум температуры воздуха на высоте 2 м над землей.
Tmax - Максимальная температура - максимум температуры воздуха на высоте 2 м над землей.
R - Количество осадков - Количество выпавших осадков за период времени, мм. При наведении курсора мыши на число - период времени, за который выпало указанное количество осадков.
R24 - Количество осадков - Количество выпавших осадков за 24 часа, мм.
S - Снежный покров - Высота снежного покрова, см. При наведении курсора мыши на число - состояние снежного покрова и степень покрытия местности в баллах.